EW5562 Weather Reports


Display with metric or nautical units.
time (UTC)temp
F
wind
direction
speed
MPH
gust
MPH
rain 1hr
in
rain 24hr
in
rain mn
in
humidity
%
barometer
mb
20260507201631 66 305 2.0 4.0 0.00 0.00 0.00 56 1013.9
20260507194631 66 52 2.0 6.0 0.00 0.00 0.00 58 1013.7
20260507191630 67 113 1.0 5.0 0.00 0.00 0.00 59 1013.6
20260507184630 66 56 2.0 6.0 0.00 0.00 0.00 63 1013.2
20260507181630 70 92 4.0 5.0 0.00 0.00 0.00 58 1012.9
20260507174629 71 274 2.0 3.0 0.00 0.00 0.00 56 1012.8
20260507171629 71 296 3.0 6.0 0.00 0.00 0.00 55 1012.9
20260507164628 73 353 5.0 10.0 0.00 0.00 0.00 55 1012.7
20260507163133 73 0 3.0 12.0 0.00 0.00 0.00 54 1012.5
20260507154627 74 35 11.0 15.0 0.00 0.00 0.00 51 1012.2
20260507151627 76 41 10.0 15.0 0.00 0.00 0.00 50 1012.2
20260507144626 78 31 11.0 16.0 0.00 0.00 0.00 45 1012.6
20260507141627 79 37 13.0 16.0 0.00 0.00 0.00 41 1012.5
20260507134626 80 0 9.0 13.0 0.00 0.00 0.00 38 1012.4
20260507131626 81 23 6.0 12.0 0.00 0.00 0.00 39 1012.1
20260507124623 82 252 2.0 5.0 0.00 0.00 0.00 34 1012.5
20260507121624 80 49 3.0 6.0 0.00 0.00 0.00 38 1012.5
20260507114623 80 48 2.0 6.0 0.00 0.00 0.00 37 1012.9
20260507111622 80 234 1.0 4.0 0.00 0.00 0.00 37 1013.0
20260507110124 80 258 4.0 7.0 0.00 0.00 0.00 36 1013.2
20260507101623 78 0 2.0 7.0 0.00 0.00 0.00 42 1013.1
20260507094623 77 0 2.0 5.0 0.00 0.00 0.00 42 1013.2
20260507093138 75 20 2.0 6.0 0.00 0.00 0.00 43 1013.3
20260507084621 74 20 6.0 6.0 0.00 0.00 0.00 45 1013.3
20260507081621 71 0 2.0 5.0 0.00 0.00 0.00 51 1013.5
20260507074621 70 0 2.0 4.0 0.00 0.00 0.00 55 1013.2
20260507071620 67 0 2.0 5.0 0.00 0.00 0.00 59 1013.5
20260507070121 66 327 0.0 3.0 0.00 0.00 0.00 59 1013.7
20260507061618 64 341 2.0 4.0 0.00 0.00 0.00 62 1013.7
20260507054619 61 283 0.0 4.0 0.00 0.00 0.00 69 1013.7
20260507051619 58 254 2.0 3.0 0.00 0.00 0.00 74 1013.6
20260507044617 55 307 0.0 3.0 0.00 0.00 0.00 79 1013.3
20260507041617 53 296 2.0 4.0 0.00 0.00 0.00 80 1013.1
20260507034616 52 254 2.0 4.0 0.00 0.00 0.00 83 1013.0
20260507031616 52 264 1.0 6.0 0.00 0.00 0.00 81 1012.9
20260507030116 53 316 4.0 6.0 0.00 0.00 0.00 79 1012.6
20260507023116 53 314 3.0 5.0 0.00 0.00 0.00 80 1012.3
20260507014615 54 261 1.0 2.0 0.00 0.00 0.00 79 1012.2
20260507011615 54 195 0.0 4.0 0.00 0.00 0.00 77 1012.0
20260507004615 55 314 3.0 5.0 0.00 0.00 0.00 76 1012.0
20260507001613 54 317 2.0 4.0 0.00 0.00 0.00 77 1011.9
20260506234613 57 289 1.0 5.0 0.00 0.00 0.00 72 1012.1
20260506231612 58 336 2.0 4.0 0.00 0.00 0.00 70 1012.2
20260506224612 56 213 1.0 5.0 0.00 0.00 0.00 73 1012.3
20260506221611 60 59 4.0 5.0 0.00 0.00 0.00 66 1012.5
20260506214611 59 344 3.0 5.0 0.00 0.00 0.00 68 1012.6
20260506211611 60 79 0.0 3.0 0.00 0.00 0.00 67 1012.3
20260506204610 61 45 3.0 4.0 0.00 0.00 0.00 62 1012.4